Location: ????
(55.5675°N, 37.6272°E)
Time: 21:40:17
(UTC+00:00)

CZ-4B R/B - Pass Details

Date: 14 April 2026
Orbit: 699 x 798 km, 98.9° (Epoch: 11 May)

Event Time Altitude Azimuth Distance (km) Brightness Sun altitude
Exits shadow 18:13:49 19° 143° (SE) 1,687 4.7 -13.2°
Maximum altitude 18:17:13 61° 67° (ENE) 814 3.5 -13.6°
Drops below altitude 10° 18:21:56 10° 348° (NNW) 2,188 6.7 -14.1°
Sets 18:24:12 0° 345° (NNW) 3,105 7.7 -14.3°
